GW0587 Weather Reports


time (UTC)temp
C
wind
direction
speed
KPH
gust
KPH
rain 1hr
cm
rain 24hr
cm
rain mn
cm
humidity
%
barometer
mb
20260906064554 27 0 0.0 8.0 0.00 0.00 0.00 80 1012.3
20260906063049 27 0 0.0 0.0 0.00 0.00 0.00 80 1012.3
20260906061552 27 0 0.0 0.0 0.00 0.00 0.00 80 1012.3
20260906060047 27 0 0.0 0.0 0.00 0.00 0.00 79 1012.5
20260906054603 27 0 0.0 0.0 0.00 0.00 0.00 78 1012.6
20260906053058 27 0 0.0 0.0 0.00 0.00 0.00 77 1012.4
20260906051606 27 0 0.0 0.0 0.00 0.00 0.00 76 1012.4
20260906050058 27 0 0.0 0.0 0.00 0.00 0.00 76 1012.4
20260906044558 27 0 0.0 0.0 0.00 0.00 0.00 76 1012.5
20260906043048 27 0 0.0 0.0 0.00 0.00 0.00 74 1012.3
20260906041551 27 0 0.0 0.0 0.00 0.00 0.00 74 1012.3
20260906040134 28 0 0.0 0.0 0.00 0.00 0.00 74 1012.4
20260906034601 28 0 0.0 0.0 0.00 0.00 0.00 73 1012.3
20260906033102 28 0 0.0 0.0 0.00 0.00 0.00 73 1012.4
20260906031546 28 0 0.0 0.0 0.00 0.00 0.00 72 1012.2
20260906030057 28 0 0.0 0.0 0.00 0.00 0.00 71 1012.3
20260906024605 29 0 0.0 0.0 0.00 0.00 0.00 70 1012.2
20260906023057 29 0 0.0 0.0 0.00 0.00 0.00 70 1012.1
20260906021605 29 0 0.0 0.0 0.00 0.00 0.00 69 1012.1
20260906020100 30 0 0.0 0.0 0.00 0.00 0.00 68 1012.0
20260906014601 30 0 0.0 0.0 0.00 0.00 0.00 67 1011.8
20260906013107 30 0 0.0 0.0 0.00 0.00 0.00 66 1011.4
20260906011548 31 0 0.0 0.0 0.00 0.00 0.00 65 1011.2
20260906010100 31 0 0.0 0.0 0.00 0.00 0.00 63 1011.3
20260906004556 32 0 0.0 0.0 0.00 0.00 0.00 61 1011.4
20260906003048 33 0 0.0 1.6 0.00 0.00 0.00 59 1011.1
20260906001549 33 0 0.0 0.0 0.00 0.00 0.00 56 1011.1
20260906000048 34 0 0.0 0.0 0.00 0.00 0.00 55 1011.4
20260905234554 35 0 0.0 3.2 0.00 0.00 0.00 53 1011.4
20260905233056 35 0 0.0 4.8 0.00 0.00 0.00 50 1011.1
20260905231550 35 25 0.0 6.4 0.00 0.00 0.00 50 1011.3
20260905230106 35 325 1.6 11.3 0.00 0.00 0.00 50 1011.2
20260905224614 36 5 1.6 6.4 0.00 0.00 0.00 50 1011.4
20260905223052 36 0 1.6 12.9 0.00 0.00 0.00 49 1011.2
20260905221548 36 44 3.2 12.9 0.00 0.00 0.00 49 1011.2
20260905220059 36 109 1.6 6.4 0.00 0.00 0.00 45 1011.3
20260905214558 36 98 3.2 9.7 0.00 0.00 0.00 46 1011.3
20260905213050 37 75 1.6 8.0 0.00 0.00 0.00 45 1011.4
20260905211549 37 352 1.6 12.9 0.00 0.00 0.00 45 1011.5
20260905210101 37 18 4.8 12.9 0.00 0.00 0.00 45 1011.6
20260905204601 37 60 3.2 17.7 0.00 0.00 0.00 45 1011.6
20260905203055 38 59 3.2 14.5 0.00 0.00 0.00 44 1011.9
20260905201549 37 0 1.6 9.7 0.00 0.00 0.00 43 1012.1
20260905200049 37 306 1.6 9.7 0.00 0.00 0.00 44 1012.4
20260905194556 37 344 1.6 8.0 0.00 0.00 0.00 43 1012.5
20260905193050 38 21 1.6 14.5 0.00 0.00 0.00 42 1012.7
20260905191554 37 352 3.2 12.9 0.00 0.00 0.00 44 1012.8
20260905190045 37 345 3.2 9.7 0.00 0.00 0.00 45 1013.1
20260905184600 38 350 3.2 11.3 0.00 0.00 0.00 46 1013.2
20260905183050 37 132 1.6 17.7 0.00 0.00 0.00 46 1013.3
20260905181547 37 119 1.6 9.7 0.00 0.00 0.00 47 1013.5
20260905180104 37 257 1.6 9.7 0.00 0.00 0.00 47 1013.6
20260905174553 37 294 3.2 12.9 0.00 0.00 0.00 47 1013.9
20260905173105 37 352 3.2 12.9 0.00 0.00 0.00 48 1014.0
20260905171547 36 13 1.6 14.5 0.00 0.00 0.00 50 1014.1
20260905170110 36 5 3.2 9.7 0.00 0.00 0.00 51 1014.2
20260905164553 36 123 1.6 12.9 0.00 0.00 0.00 53 1014.5
20260905163117 36 138 1.6 6.4 0.00 0.00 0.00 53 1014.6
20260905161609 35 128 1.6 6.4 0.00 0.00 0.00 55 1014.8
20260905160056 35 38 1.6 6.4 0.00 0.00 0.00 55 1014.8
20260905154559 35 45 0.0 6.4 0.00 0.00 0.00 57 1014.8
20260905153048 34 0 0.0 4.8 0.00 0.00 0.00 58 1014.9
20260905151553 34 352 1.6 4.8 0.00 0.00 0.00 59 1014.9
20260905150051 33 339 1.6 4.8 0.00 0.00 0.00 60 1015.0
20260905144549 33 0 0.0 3.2 0.00 0.00 0.00 62 1014.8
20260905143048 32 58 1.6 4.8 0.00 0.00 0.00 63 1014.9
20260905141548 32 0 0.0 4.8 0.00 0.00 0.00 65 1014.9
20260905140049 31 0 0.0 3.2 0.00 0.00 0.00 66 1014.6
20260905134557 31 0 0.0 0.0 0.00 0.00 0.00 68 1014.8
20260905133058 30 0 0.0 0.0 0.00 0.00 0.00 72 1015.0
20260905131600 29 0 0.0 0.0 0.00 0.00 0.00 74 1014.7
20260905130059 28 0 0.0 0.0 0.00 0.00 0.00 78 1014.8
20260905124559 27 0 0.0 0.0 0.00 0.00 0.00 82 1014.8
20260905123105 26 0 0.0 0.0 0.00 0.00 0.00 85 1014.6
20260905121554 25 0 0.0 0.0 0.00 0.00 0.00 86 1014.6
20260905120050 25 0 0.0 0.0 0.00 0.00 0.00 86 1014.6
20260905114603 25 0 0.0 0.0 0.00 0.00 0.00 86 1014.6
20260905113054 25 0 0.0 0.0 0.00 0.00 0.00 86 1014.3
20260905111552 25 0 0.0 0.0 0.00 0.00 0.00 85 1014.2
20260905110047 25 0 0.0 0.0 0.00 0.00 0.00 85 1014.0
20260905104555 25 0 0.0 0.0 0.00 0.00 0.00 85 1014.0
20260905103104 25 0 0.0 0.0 0.00 0.00 0.00 84 1014.1
20260905101605 25 0 0.0 0.0 0.00 0.00 0.00 83 1013.9
20260905100117 25 0 0.0 0.0 0.00 0.00 0.00 83 1014.1
20260905094550 26 0 0.0 0.0 0.00 0.00 0.00 82 1014.1
20260905093059 26 0 0.0 0.0 0.00 0.00 0.00 82 1013.9
20260905091601 26 0 0.0 0.0 0.00 0.00 0.00 81 1013.8
20260905090052 26 0 0.0 0.0 0.00 0.00 0.00 81 1014.0
20260905084552 26 0 0.0 0.0 0.00 0.00 0.00 80 1013.9
20260905083105 26 0 0.0 0.0 0.00 0.00 0.00 80 1014.0
20260905081558 26 0 0.0 0.0 0.00 0.00 0.00 80 1013.9
20260905080051 26 0 0.0 0.0 0.00 0.00 0.00 79 1013.9
20260905074549 26 0 0.0 0.0 0.00 0.00 0.00 78 1013.9
20260905073049 26 0 0.0 0.0 0.00 0.00 0.00 77 1014.1
20260905071557 27 0 0.0 0.0 0.00 0.00 0.00 77 1014.1
20260905070058 27 0 0.0 0.0 0.00 0.00 0.00 76 1013.9